Regional Weather Roundup
Issued by NWS

Home | Current Version | Previous Version | Graphics & Text | Print | Product List | Glossary On
Versions: 1 2 3 4 5 6 7 8 9 10 11 12 13 14 15 16 17 18 19 20 21 22 23 24 25 26 27 28 29 30 31 32 33 34 35 36 37 38 39 40 41 42 43 44 45 46 47 48 49 50
000
ASUS43 KFSD 051210
RWRSD

WEATHER ROUNDUP FOR SOUTH DAKOTA
NATIONAL WEATHER SERVICE SIOUX FALLS SD
700 AM CDT TUE MAY 05 2015

NOTE: "FAIR" INDICATES FEW OR NO CLOUDS BELOW 12,000 FEET WITH NO
SIGNIFICANT WEATHER AND/OR OBSTRUCTIONS TO VISIBILITY.


SDZ001>005-009-010-012>017-051300-
NORTHWEST AND NORTH CENTRAL SOUTH DAKOTA

CITY           SKY/WX    TMP DP  RH WIND       PRES   REMARKS
BUFFALO          N/A     44  29  55 SE10      29.91S
FAITH            N/A     46  30  53 S12       30.01F
MOBRIDGE       PTCLDY    54  34  46 SE13      30.05S
$$

SDZ012>016-024>037-041>051-057-063-072>074-051300-
SOUTHWEST AND SOUTH CENTRAL SOUTH DAKOTA

CITY           SKY/WX    TMP DP  RH WIND       PRES   REMARKS
RAPID CTY ARPT CLEAR     38  34  85 SE8       30.00F
PIERRE         PTCLDY    51  37  58 E10       30.06S
CUSTER         CLOUDY    42  37  82 S3        30.04F
ELLSWORTH AFB  CLEAR     42  35  75 S13       29.99F
PHILIP         MOCLDY    39  28  64 E3        30.04F
PINE RIDGE     MOCLDY    39  35  86 CALM      30.02F
SPEARFISH      FAIR      41  37  87 SW5       29.96S
WINNER         CLOUDY    52  42  69 E8        30.07F
$$

SDZ004>011-016>023-039-040-051300-
NORTHEAST SOUTH DAKOTA

CITY           SKY/WX    TMP DP  RH WIND       PRES   REMARKS
ABERDEEN       MOCLDY    45  33  63 CALM      30.14S
WATERTOWN      CLEAR     50  26  39 E7        30.15S
BROOKINGS      PTCLDY    48  28  46 E7        30.15S
SISSETON         N/A     38  28  67 CALM      30.17S
$$

SDZ017-020-022-023-036>040-048>070-051300-
SOUTHEAST SOUTH DAKOTA

CITY           SKY/WX    TMP DP  RH WIND       PRES   REMARKS
SIOUX FALLS    CLOUDY    46  35  65 NE3       30.11S
HURON          MOCLDY    44  33  65 E7        30.12S
CHAMBERLAIN    CLOUDY    46  39  75 E6        30.09F
MITCHELL       MOCLDY    46  34  62 CALM      30.11S
YANKTON        MOCLDY    54  37  54 NE8       30.08F
$$

ABBREVIATIONS USED IN REMARKS
   TC - TEMPERATURE IN CELSIUS
  WCI - WIND CHILL INDEX
   HX - HEAT INDEX
  VSB - VISIBILITY



USA.gov is the U.S. government's official web portal to all federal, state and local government web resources and services.